[[{"header":{"parameterUnit":"m.s-1","parameterCategory":1,"la1":30.2991,"la2":30.254,"lo1":-89.0895,"lo2":-89.0444,"dy":0.0017,"dx":0.0017,"nx":28,"ny":28,"refTime":"2025-08-20T21:00:00:Z","depth":0,"parameterNumber":2,"parameterNumberName":"U-component_of_WINDS"},"data":[0,0,0,0,0,0,0,0,0,0,0,0,0,0,0,0,0,0,0,0,0,0,0,0,0,0,0,0,0,0,0,0,0,0,0,0,0,0,0,0,0,0,0,0,0,0,0,0,0,0,0,0,0,0,0,0,0,0,1.2145,1.2146,0,1.2245,1.2246,1.2247,1.2286,1.2286,1.2285,1.2285,1.2386,1.2389,1.2392,0,0,0,0,0,0,0,0,0,0,0,0,0,1.1986,1.1989,1.2145,1.2146,1.2148,1.2245,1.2246,1.2248,1.2286,1.2286,1.2285,1.2285,1.2385,1.2389,1.2392,0,0,0,0,0,0,0,0,0,0,0,0,0,1.2067,1.1989,1.2145,1.2179,1.2183,1.2245,1.2246,1.2248,1.2286,1.2286,1.2285,1.2285,1.2384,1.2389,1.2393,1.2429,0,0,1.2406,1.2408,0,0,0,0,0,0,0,0,1.2062,1.2073,1.2172,1.2176,1.2181,1.2253,1.2227,1.2308,1.2286,1.2247,1.2285,1.2285,1.2342,1.235,1.237,1.2433,1.2438,1.2407,1.241,1.2411,1.2413,0,0,0,0,0,0,0,1.2057,1.2069,1.2185,1.2174,1.2179,1.2188,1.2199,1.2243,1.2295,1.225,1.2253,1.2264,1.2344,1.2365,1.2372,1.2439,1.2407,1.2411,1.2413,1.2415,1.2536,1.2536,0,0,0,0,0,0,1.2046,1.2064,1.2182,1.2188,1.212,1.2191,1.2204,1.223,1.2295,1.2305,1.2265,1.2266,1.2358,1.2367,1.2376,1.2421,1.2411,1.2416,1.2418,1.2535,1.2536,1.2536,0,0,0,0,0,0,1.2042,1.2056,1.2177,1.2127,1.2143,1.2194,1.2224,1.2232,1.2253,1.2306,1.2316,1.2276,1.2358,1.237,1.2415,1.2425,1.2418,1.2422,1.2534,1.2535,1.2536,1.2512,0,0,0,0,0,0,1.2038,1.2054,1.2069,1.2127,1.2145,1.2215,1.2224,1.2234,1.2261,1.2263,1.232,1.2329,1.2358,1.2408,1.2419,1.2431,1.2425,1.2534,1.2535,1.2536,1.2512,1.2512,1.2512,0,0,0,0,0,1.2032,1.2059,1.207,1.2084,1.2165,1.2216,1.2226,1.2261,1.2261,1.2276,1.231,1.2327,1.2422,1.2412,1.2425,1.2439,1.2533,1.2534,1.2536,1.2512,1.2512,1.2512,0,0,0,0,0,0,1.2001,1.2067,1.208,1.2126,1.2165,1.2222,1.2242,1.2259,1.2299,1.2299,1.2339,1.2352,1.2393,1.2421,1.2409,1.2476,1.2479,1.2483,1.2457,1.2457,1.2457,1.2449,1.2429,0,0,0,0,0,1.1999,1.2036,1.2091,1.2127,1.2146,1.219,1.2214,1.2236,1.2278,1.2295,1.2332,1.2372,1.241,1.2435,1.2474,1.2516,1.2529,1.2532,1.2531,1.2531,1.2534,1.2557,1.2559,1.254,1.254,1.254,0,0,1.1997,1.2037,1.2058,1.2122,1.2154,1.219,1.2204,1.2242,1.2269,1.2301,1.2345,1.2374,1.2421,1.2464,1.2485,1.2488,1.2542,1.2533,1.2532,1.2535,1.2559,1.256,1.2562,1.2541,1.2541,1.2541,0,0,1.2011,1.2045,1.2078,1.2111,1.216,1.2189,1.2197,1.2251,1.2271,1.2317,1.2341,1.2373,1.244,1.2472,1.2497,1.2521,1.2537,1.2532,1.2531,1.2553,1.2555,1.2556,1.2564,1.2566,1.2535,1.2535,1.2535,0,1.2001,1.2057,1.2093,1.2129,1.2156,1.2186,1.2219,1.2249,1.2308,1.2325,1.2328,1.2411,1.2444,1.2495,1.2501,1.252,1.253,1.2526,1.2552,1.2554,1.2555,1.2563,1.2566,1.2534,1.2534,1.2534,1.2534,0,1.2042,1.2081,1.2101,1.2157,1.2186,1.2221,1.2261,1.2286,1.2305,1.2334,1.2379,1.2421,1.2468,1.2481,1.2501,1.2535,1.2535,1.2544,1.2548,1.2556,1.2564,1.2567,1.2532,1.2533,1.2533,1.2533,0,0,1.204,1.2115,1.2122,1.2147,1.2203,1.2233,1.2268,1.2314,1.2334,1.2374,1.2404,1.2458,1.2467,1.2495,1.2518,1.2538,1.2553,1.2545,1.2546,1.2544,1.2592,1.2584,1.2587,1.2564,1.2565,1.2566,1.2587,0,1.2061,1.2126,1.2158,1.2208,1.2243,1.2272,1.2302,1.234,1.2367,1.24,1.243,1.2468,1.2477,1.2494,1.2514,1.2547,1.2563,1.2546,1.2592,1.2593,1.2579,1.2592,1.2584,1.2603,1.2591,1.2591,1.2592,0,1.2094,1.2133,1.2187,1.2237,1.2253,1.228,1.2324,1.2356,1.2398,1.2416,1.2447,1.247,1.2507,1.2508,1.2559,1.2546,1.2567,1.2586,1.2587,1.2593,1.2593,1.2597,1.261,1.2612,1.2597,1.2597,1.2596,0,1.2086,1.2152,1.2192,1.2213,1.2274,1.2292,1.2317,1.2359,1.2384,1.2423,1.2439,1.2481,1.2504,1.2536,1.2569,1.2567,1.2617,1.2621,1.2633,1.2632,1.2642,1.2641,1.2658,1.2656,1.2656,1.2655,1.2655,0,1.2105,1.2137,1.2189,1.2214,1.225,1.2286,1.232,1.2349,1.2385,1.2415,1.2443,1.247,1.2513,1.2545,1.2571,1.2609,1.262,1.2635,1.2642,1.2633,1.263,1.2647,1.2646,1.2656,1.2656,1.2656,1.2656,0,1.2103,1.2139,1.2185,1.2238,1.2252,1.2276,1.2321,1.2346,1.2374,1.2412,1.2423,1.2467,1.2507,1.2543,1.2596,1.2613,1.2652,1.266,1.2637,1.2641,1.2651,1.2649,1.2679,1.2684,1.2678,1.2678,1.2678,0,1.2112,1.2137,1.2193,1.2215,1.224,1.2276,1.2302,1.2338,1.2363,1.2413,1.2431,1.2473,1.2508,1.257,1.2607,1.2647,1.2657,1.2664,1.2663,1.2653,1.2656,1.2654,1.2656,1.2663,1.2663,1.2663,1.2663,0,1.2126,1.2142,1.2178,1.222,1.225,1.2285,1.2321,1.2337,1.238,1.2407,1.2448,1.2475,1.2529,1.257,1.2614,1.264,1.2659,1.2663,1.2668,1.2659,1.2645,1.2652,1.2636,1.2662,1.2663,1.2663,1.2663,1.2663,1.2129,1.2152,1.2195,1.2234,1.2264,1.2297,1.2322,1.2353,1.2388,1.2435,1.2454,1.2495,1.2536,1.2597,1.2623,1.2655,1.2659,1.2666,1.2668,1.2669,1.2667,1.2639,1.2664,1.2664,1.2664,1.2664,1.2664,0,1.2144,1.2172,1.2207,1.2256,1.2286,1.2301,1.2341,1.2365,1.2401,1.2438,1.2472,1.2518,1.2557,1.2597,1.2638,1.2656,1.2666,1.2666,1.2665,1.2671,1.2662,1.2653,1.2658,1.2658,1.2658,1.2658,1.2658,1.2658,1.2154,1.2194,1.2215,1.2269,1.2298,1.2338,1.236,1.2389,1.2419,1.2469,1.2502,1.2527,1.2565,1.2609,1.2645,1.2656,1.267,1.2667,1.268,1.2671,1.2671,1.2672,1.2664,1.267,1.267,1.2687,1.2687,1.2687]},{"header":{"parameterUnit":"m.s-1","parameterCategory":1,"la1":30.2991,"la2":30.254,"lo1":-89.0895,"lo2":-89.0444,"dy":0.0017,"dx":0.0017,"nx":28,"ny":28,"refTime":"2025-08-20T21:00:00:Z","depth":0,"parameterNumber":3,"parameterNumberName":"V-component_of_WINDS"},"data":[0,0,0,0,0,0,0,0,0,0,0,0,0,0,0,0,0,0,0,0,0,0,0,0,0,0,0,0,0,0,0,0,0,0,0,0,0,0,0,0,0,0,0,0,0,0,0,0,0,0,0,0,0,0,0,0,0,0,2.9822,2.9822,0,2.9778,2.9777,2.9777,2.9712,2.971,2.9709,2.9708,2.9663,2.9663,2.9663,0,0,0,0,0,0,0,0,0,0,0,0,0,2.985,2.985,2.9822,2.9822,2.9821,2.9778,2.9777,2.9777,2.9712,2.971,2.9709,2.9708,2.9663,2.9663,2.9663,0,0,0,0,0,0,0,0,0,0,0,0,0,2.9825,2.985,2.9822,2.9783,2.978,2.9778,2.9777,2.9776,2.9712,2.971,2.9709,2.9707,2.9663,2.9663,2.9663,2.9696,0,0,2.9663,2.9662,0,0,0,0,0,0,0,0,2.9827,2.9824,2.979,2.9786,2.9782,2.9748,2.9771,2.975,2.9713,2.9738,2.9708,2.9706,2.9693,2.969,2.9686,2.9694,2.9692,2.9662,2.9662,2.9662,2.9662,0,0,0,0,0,0,0,2.9829,2.9826,2.9805,2.9789,2.9784,2.9768,2.9763,2.9766,2.9726,2.9735,2.9731,2.9726,2.9691,2.9686,2.9684,2.9691,2.9662,2.9662,2.9662,2.9662,2.9722,2.9724,0,0,0,0,0,0,2.9836,2.9828,2.9806,2.9803,2.9801,2.9769,2.9763,2.9761,2.9725,2.9718,2.9728,2.9723,2.9687,2.9685,2.9682,2.9717,2.9662,2.9662,2.9662,2.972,2.9722,2.9724,0,0,0,0,0,0,2.9837,2.9835,2.9808,2.9814,2.981,2.977,2.9769,2.9761,2.9756,2.9719,2.9712,2.9731,2.9686,2.9683,2.9693,2.9714,2.9662,2.9662,2.9718,2.9721,2.9723,2.9787,0,0,0,0,0,0,2.9838,2.9836,2.9848,2.9815,2.9809,2.9819,2.977,2.9761,2.9756,2.975,2.972,2.9714,2.9684,2.9693,2.9692,2.9713,2.9662,2.9716,2.972,2.9723,2.9783,2.9791,2.9799,0,0,0,0,0,2.9839,2.9868,2.9849,2.9847,2.9824,2.982,2.9817,2.9783,2.9758,2.977,2.9746,2.9715,2.9713,2.9695,2.9693,2.9714,2.9715,2.9719,2.9722,2.9779,2.979,2.9799,0,0,0,0,0,0,2.9905,2.9863,2.9841,2.986,2.9844,2.9809,2.9823,2.9795,2.9786,2.9781,2.9739,2.9732,2.9747,2.9732,2.9713,2.9743,2.9709,2.9712,2.9752,2.9762,2.977,2.9773,2.9662,0,0,0,0,0,2.9922,2.9922,2.9886,2.9906,2.9899,2.9863,2.986,2.9835,2.9817,2.981,2.9786,2.977,2.9765,2.9763,2.9757,2.9781,2.9772,2.9794,2.9803,2.9809,2.9812,2.9822,2.983,2.9737,2.9737,2.9737,0,0,2.9956,2.9933,2.9936,2.9919,2.9903,2.9904,2.9858,2.9861,2.9861,2.981,2.9817,2.98,2.9779,2.9795,2.9801,2.9783,2.9837,2.9814,2.982,2.9819,2.9827,2.9835,2.9843,2.974,2.9739,2.9739,0,0,3.0019,3.0002,3.0016,3.0002,2.9979,2.9954,2.9958,2.9927,2.9913,2.992,2.9881,2.9881,2.9874,2.986,2.9852,2.9909,2.9879,2.9908,2.995,2.9959,2.9966,2.9973,2.9991,2.9998,2.9912,2.9912,2.9912,0,3.0064,3.0064,3.0027,3.0033,3.0025,2.9979,2.9992,2.998,2.9957,2.9953,2.9933,2.9922,2.9905,2.9916,2.993,2.9926,2.9927,2.9911,2.9968,2.9974,2.998,2.9996,3.0004,2.9916,2.9915,2.9915,2.9914,0,3.012,3.0121,3.0135,3.0113,3.0107,3.0117,3.0081,3.008,3.0055,3.0033,3.0039,3.0017,3.0004,3.0006,2.9982,3.0013,3.0002,2.9976,2.994,2.9993,3.0008,3.0014,2.9921,2.9919,2.9918,2.9917,0,0,3.0222,3.0179,3.0185,3.0173,3.0144,3.0144,3.0151,3.0139,3.0138,3.0123,3.0127,3.0122,3.0097,3.0088,3.0063,3.0071,3.0115,3.0044,3.0042,3.0056,3.0146,3.0164,3.0172,3.0096,3.0097,3.0098,3.0147,0,3.0278,3.0287,3.0254,3.0271,3.027,3.0226,3.0232,3.0215,3.0194,3.019,3.0167,3.0163,3.0132,3.0126,3.0133,3.0108,3.0132,3.0105,3.0097,3.0098,3.0102,3.018,3.02,3.0247,3.0152,3.0153,3.0154,0,3.0343,3.0331,3.0349,3.0318,3.0316,3.0322,3.0307,3.0304,3.0284,3.0268,3.0257,3.0227,3.0231,3.0198,3.0202,3.0184,3.0179,3.0167,3.0168,3.0164,3.0128,3.0177,3.0262,3.0268,3.0163,3.0163,3.0162,0,3.0413,3.0402,3.041,3.0402,3.0367,3.0372,3.0357,3.0335,3.0329,3.0316,3.0311,3.03,3.0293,3.0284,3.0251,3.023,3.0258,3.0223,3.0244,3.0244,3.025,3.025,3.0333,3.0251,3.0251,3.025,3.025,0,3.0477,3.0489,3.0441,3.0446,3.0458,3.0419,3.0432,3.0413,3.0393,3.0393,3.0355,3.0356,3.0313,3.0309,3.0284,3.0289,3.0287,3.0274,3.0266,3.0276,3.0277,3.0271,3.0266,3.0252,3.0252,3.0252,3.0251,0,3.0557,3.0525,3.0531,3.0497,3.0488,3.0498,3.0469,3.0471,3.0448,3.0449,3.0447,3.041,3.0403,3.037,3.0355,3.0338,3.0352,3.0339,3.0359,3.0354,3.0376,3.0373,3.0456,3.0464,3.0379,3.038,3.038,0,3.0599,3.0607,3.0573,3.057,3.0557,3.0553,3.0547,3.051,3.0504,3.0481,3.0486,3.0476,3.0466,3.0456,3.0428,3.0416,3.0401,3.0431,3.0399,3.0408,3.0399,3.0398,3.0398,3.0438,3.0439,3.044,3.044,0,3.0676,3.0659,3.0652,3.0638,3.0632,3.0619,3.0605,3.0604,3.0563,3.0559,3.0551,3.0543,3.0527,3.0517,3.05,3.0485,3.0455,3.0451,3.0455,3.0464,3.0474,3.0466,3.0375,3.0449,3.0448,3.0447,3.0447,3.0447,3.0736,3.074,3.0717,3.0709,3.0694,3.0681,3.0682,3.0658,3.0651,3.0635,3.0614,3.0608,3.0586,3.056,3.0547,3.0542,3.0525,3.0531,3.0532,3.0534,3.0538,3.0476,3.0539,3.0539,3.0538,3.0538,3.0538,0,3.0809,3.0792,3.0785,3.0766,3.0759,3.0733,3.0715,3.0711,3.0707,3.0689,3.0679,3.0669,3.0659,3.063,3.0616,3.0617,3.0603,3.0615,3.0613,3.061,3.0555,3.0552,3.0626,3.0626,3.0626,3.0626,3.0626,3.0626,3.0846,3.0852,3.0833,3.083,3.0812,3.0806,3.0798,3.0786,3.0771,3.0761,3.0753,3.0734,3.0711,3.0695,3.0684,3.0676,3.0671,3.0687,3.0674,3.0623,3.0614,3.0606,3.0603,3.0687,3.0687,3.0729,3.073,3.073]}]]